Flag for Cuba Weather past 2 weeks in Santa Clara, Cuba

Now
77 °F

Warm.


Feels Like: 78 °F
Forecast: 76 / 90 °F
Wind: 8 mph from Northeast

Location: Cienfuegos - Las Villas

Current Time: Aug 29, 2015 at 3:48:07 AM

Latest Report: Aug 29, 2015 at 2:59 AM


Visibility: N/A

Pressure: 29.95 "Hg

Humidity: 100%

Dew point: 77 °F

Location of Santa ClaraLocation

Historic Weather in Santa Clara — Graph

°F

Santa Clara temperature yesterday

Maximum temperature yesterday: 93 °F (at 1:50 PM)
Minimum temperature yesterday: 75 °F (at 12:59 AM)
Average temperature yesterday: 83 °F

Past Weeks' High & Low Weather Summary

 TemperatureHumidityPressure
High95 °F (Aug 27, 3:50 PM)100% (Aug 15, 6:59 AM)30.04 "Hg (Aug 15, 6:59 AM)
Low72 °F (Aug 14, 7:50 PM)41% (Aug 22, 12:59 PM)29.89 "Hg (Aug 22, 5:59 PM)
Average82 °F81%29.97 "Hg
* Reported Aug 14 2:59 AM — Aug 29 2:59 AM, Santa Clara, Weather by CustomWeather, © 2015

Note: Actual official high and low records may vary slightly from our data, if they occured in-between our weather recording intervals... More about our weather records

Advertising

Santa Clara weather history for previous 24 hours

 ConditionsComfort  
Time TempWeatherWind HumidityBarometerVisibility
2:59 AM
Sat, Aug 29
77 °FWarm.8 mph100%29.95 "HgN/A
1:59 AM79 °FWarm.10 mph94%29.95 "HgN/A
12:59 AM79 °FWarm.9 mph94%29.98 "HgN/A
11:59 PM
Fri, Aug 28
81 °FWarm.9 mph89%29.98 "HgN/A
10:59 PM81 °FWarm.8 mph89%29.98 "HgN/A
9:59 PM82 °FWarm.8 mph84%29.98 "HgN/A
8:59 PM82 °FWarm.6 mph79%29.95 "HgN/A
7:59 PM84 °FWarm.8 mph79%29.92 "HgN/A
6:50 PM84 °FPartly sunny.9 mph79%29.89 "Hg6 mi
5:50 PM86 °FSnow. Scattered clouds.5 mph75%29.89 "Hg6 mi
4:50 PM91 °FScattered clouds.7 mph56%29.89 "Hg6 mi
3:50 PM93 °FPassing clouds.8 mph56%29.89 "Hg6 mi
2:52 PM93 °FScattered clouds.2 mph56%29.92 "Hg6 mi
1:50 PM93 °FScattered clouds.9 mph49%29.95 "Hg6 mi
12:50 PM90 °FScattered clouds.2 mph63%29.98 "Hg6 mi
11:50 AM90 °FScattered clouds.2 mph59%29.98 "Hg6 mi
10:50 AM90 °FPassing clouds.2 mph63%29.98 "Hg6 mi
9:50 AM84 °FClear.2 mph79%29.98 "Hg6 mi
8:50 AM81 °FPassing clouds.2 mph84%29.98 "Hg6 mi
7:59 AM77 °FWarm.2 mph94%29.95 "HgN/A
6:59 AM75 °FMild.2 mph94%29.95 "HgN/A
5:59 AM75 °FMild.2 mph94%29.92 "HgN/A
4:59 AM75 °FMild.2 mph94%29.92 "HgN/A
3:59 AM75 °FMild.2 mph94%29.95 "HgN/A
Weather by CustomWeather, © 2015

See weather overviewHow to use our weather pages